Tracking 35275 objects as of 9-Sep-2026
HD Live streaming from Space Station
objects crossing your sky now

SATURN 5 DEB


SATURN 5 DEB is no longer on orbit


NORAD ID: 3201
Int'l Code: 1968-025R
Launch date: April 4, 1968
Source: United States (US)
Launch site: AIR FORCE EASTERN TEST RANGE (AFETR)
Decay date: 1968-04-16

Note: This is SATELLITE DEBRIS
Your satellite tracking list
Your tracking list is empty




NASA's NSSDC Master Catalog

Two Line Element Set (TLE):
1 03201U 68025  R 68106.44065564  .08781859 +00000-0 +00000-0 0  9998
2 03201 032.5641 156.6667 0042977 191.3643 168.6090 16.09838231001756
Source of the keplerian elements: AFSPC